FW6720 Weather Reports


time (UTC)temp
C
wind
direction
speed
KPH
gust
KPH
rain 1hr
cm
rain 24hr
cm
rain mn
cm
humidity
%
barometer
mb
20210920060301 8 71 0.0 0.0 0.00 1.22 1.22 97 1027.0
20210920055801 8 71 0.0 0.0 0.00 1.22 1.22 97 1027.0
20210920055258 8 71 0.0 0.0 0.00 1.22 1.22 97 1027.0
20210920054758 8 71 0.0 0.0 0.00 1.22 1.22 97 1027.0
20210920054257 8 71 0.0 0.0 0.00 1.22 1.22 97 1026.9
20210920053756 9 71 0.0 0.0 0.00 1.22 1.22 97 1027.0
20210920053254 9 71 0.0 0.0 0.00 1.22 1.22 97 1026.8
20210920052754 9 71 0.0 0.0 0.00 1.22 1.22 97 1026.8
20210920052251 9 71 0.0 0.0 0.00 1.22 1.22 97 1026.8
20210920051750 9 71 0.0 0.0 0.00 1.22 1.22 97 1026.7
20210920051248 9 71 0.0 0.0 0.00 1.22 1.22 97 1026.9
20210920050748 9 71 0.0 0.0 0.00 1.22 1.22 97 1026.8
20210920050244 9 71 0.0 0.0 0.00 1.22 1.22 97 1026.8
20210920045743 10 71 0.0 0.0 0.00 1.22 1.22 97 1026.6
20210920045244 10 71 0.0 0.0 0.00 1.22 1.22 97 1026.6
20210920044742 10 70 0.0 0.0 0.00 1.22 1.22 97 1026.4
20210920044241 10 71 0.0 0.0 0.00 1.22 1.22 97 1026.3
20210920043740 10 70 0.0 0.0 0.00 1.22 1.22 97 1026.3
20210920043239 10 70 0.0 0.0 0.00 1.22 1.22 97 1026.4
20210920042738 10 70 0.0 0.0 0.00 1.22 1.22 97 1026.2
20210920042237 10 70 0.0 0.0 0.00 1.22 1.22 96 1026.1
20210920041736 10 70 0.0 0.0 0.00 1.22 1.22 96 1026.4
20210920041234 10 70 0.0 0.0 0.00 1.22 1.22 96 1026.0
20210920040729 10 70 0.0 0.0 0.00 1.22 1.22 96 1026.0
20210920040227 10 70 0.0 0.0 0.00 1.22 1.22 96 1026.1
20210920035723 10 70 0.0 0.0 0.00 1.22 1.22 96 1025.8
20210920035218 10 70 0.0 0.0 0.00 1.22 1.22 96 1025.8
20210920034718 11 70 0.0 0.0 0.00 1.22 1.22 96 1025.7
20210920034216 11 70 0.0 0.0 0.00 1.22 1.22 96 1025.5
20210920033713 11 70 0.0 0.0 0.00 1.22 1.22 96 1025.4
20210920033212 11 70 0.0 0.0 0.00 1.22 1.22 95 1025.4
20210920032711 11 70 0.0 0.0 0.00 1.22 1.22 95 1025.5
20210920032210 11 70 0.0 1.6 0.00 1.22 1.22 95 1025.3
20210920031703 11 70 0.0 0.0 0.00 1.22 1.22 95 1025.2
20210920031202 11 70 0.0 0.0 0.00 1.22 1.22 95 1025.2
20210920030701 11 70 1.6 1.6 0.00 1.22 1.22 95 1024.6
20210920030158 11 70 0.0 0.0 0.00 1.22 1.22 94 1024.8
20210920025659 11 70 0.0 0.0 0.00 1.22 1.22 94 1024.7
20210920025157 12 70 0.0 0.0 0.00 1.22 1.22 94 1024.6
20210920024656 12 70 0.0 0.0 0.00 1.22 1.22 94 1024.5
20210920024153 12 70 0.0 0.0 0.00 1.22 1.22 93 1024.2
20210920023652 12 70 0.0 0.0 0.00 1.22 1.22 93 1024.3
20210920023152 12 70 0.0 0.0 0.00 1.22 1.22 93 1024.2
20210920022650 12 70 0.0 0.0 0.00 1.22 1.22 92 1024.3
20210920022148 13 70 0.0 0.0 0.00 1.22 1.22 92 1024.3
20210920021647 13 70 0.0 0.0 0.00 1.22 1.22 91 1024.2
20210920021146 13 70 0.0 0.0 0.00 1.22 1.22 91 1024.3
20210920020631 13 70 0.0 0.0 0.00 1.22 1.22 90 1024.0
20210920020131 13 70 0.0 0.0 0.00 1.22 1.22 89 1023.9
20210920015630 13 70 0.0 0.0 0.00 1.22 1.22 86 1023.9
20210920015129 14 70 0.0 1.6 0.00 1.22 1.22 85 1023.9
20210920014627 14 70 1.6 1.6 0.00 1.22 1.22 83 1023.8
20210920014125 15 70 0.0 1.6 0.00 1.22 1.22 83 1023.7
20210920013623 14 70 0.0 0.0 0.00 1.22 1.22 81 1023.7
20210920013122 15 70 3.2 3.2 0.00 1.22 1.22 82 1023.8
20210920012621 15 70 0.0 1.6 0.00 1.22 1.22 81 1023.5
20210920012121 15 69 1.6 1.6 0.00 1.22 1.22 84 1023.5
20210920011617 15 70 0.0 0.0 0.00 1.22 1.22 80 1023.6
20210920011114 15 70 0.0 0.0 0.00 1.22 1.22 83 1023.7
20210920010614 15 70 0.0 0.0 0.00 1.22 1.22 81 1023.6
20210920010110 15 70 0.0 0.0 0.00 1.22 1.22 79 1023.6
20210920005610 15 53 0.0 0.0 0.00 1.22 1.22 82 1023.5
20210920005110 15 53 1.6 1.6 0.00 1.22 1.22 79 1023.4
20210920004608 15 56 1.6 3.2 0.00 1.22 1.22 78 1023.6
20210920004106 15 8 0.0 1.6 0.00 1.22 1.22 79 1023.3
20210920003606 15 26 1.6 1.6 0.00 1.22 1.22 79 1023.1
20210920003103 15 26 1.6 3.2 0.00 1.22 1.22 79 1023.3
20210920002552 15 16 3.2 3.2 0.00 1.22 1.22 78 1023.1
20210920002049 15 48 3.2 3.2 0.00 1.22 1.22 78 1023.3
20210920001548 15 49 0.0 1.6 0.00 1.22 1.22 80 1023.3
20210920001046 15 49 1.6 3.2 0.00 1.22 1.22 77 1023.1
20210920000543 15 49 1.6 1.6 0.00 1.22 1.22 76 1023.3
20210920000042 16 51 4.8 8.0 0.00 1.22 1.22 75 1022.8
20210919235542 16 8 3.2 3.2 0.00 1.22 1.22 75 1023.0
20210919235039 16 63 3.2 4.8 0.00 1.22 1.22 73 1022.9
20210919234539 16 66 0.0 1.6 0.00 1.22 1.22 73 1022.8
20210919234038 16 39 1.6 3.2 0.00 1.22 1.22 71 1022.5
20210919233535 16 69 3.2 4.8 0.00 1.22 1.22 70 1022.5
20210919233034 16 62 0.0 0.0 0.00 1.22 1.22 72 1022.8
20210919232528 16 25 3.2 4.8 0.00 1.22 1.22 73 1022.6
20210919232029 16 37 1.6 1.6 0.00 1.22 1.22 72 1022.6
20210919231525 17 103 0.0 1.6 0.00 1.22 1.22 72 1022.6
20210919231023 17 59 1.6 3.2 0.00 1.22 1.22 68 1022.4
20210919230523 17 73 1.6 1.6 0.00 1.22 1.22 69 1022.4
20210919230022 17 4 3.2 3.2 0.00 1.22 1.22 69 1022.3
20210919225520 17 354 4.8 4.8 0.00 1.22 1.22 69 1022.4
20210919225019 17 80 0.0 0.0 0.00 1.22 1.22 70 1022.3
20210919224516 17 66 3.2 3.2 0.00 1.22 1.22 68 1022.1
20210919224014 17 50 8.0 9.7 0.00 1.22 1.22 67 1022.1
20210919223513 17 52 4.8 8.0 0.00 1.22 1.22 67 1022.3
20210919223009 17 56 0.0 0.0 0.00 1.22 1.22 69 1022.3
20210919222509 17 64 0.0 0.0 0.00 1.22 1.22 71 1021.9
20210919222006 18 63 3.2 3.2 0.00 1.22 1.22 68 1022.1
20210919221505 18 64 0.0 1.6 0.00 1.22 1.22 71 1021.9
20210919220957 17 77 1.6 3.2 0.00 1.22 1.22 73 1021.9
20210919220456 17 67 1.6 1.6 0.00 1.22 1.22 70 1022.2
20210919215956 18 32 0.0 0.0 0.00 1.22 1.22 67 1022.0
20210919215454 18 76 3.2 4.8 0.00 1.22 1.22 65 1021.9
20210919214952 18 58 1.6 3.2 0.00 1.22 1.22 66 1021.8
20210919214452 17 71 1.6 1.6 0.00 1.22 1.22 68 1022.0
20210919213948 18 58 3.2 3.2 0.00 1.22 1.22 68 1021.9
20210919213447 17 88 3.2 9.7 0.00 1.22 1.22 71 1021.6
20210919212945 16 51 3.2 3.2 0.00 1.22 1.22 73 1021.9
20210919212442 18 81 1.6 3.2 0.00 1.22 1.22 69 1021.7
20210919211938 17 54 1.6 1.6 0.00 1.22 1.22 75 1021.8
20210919211437 16 68 0.0 0.0 0.00 1.22 1.22 72 1021.8
20210919210936 16 44 1.6 3.2 0.00 1.22 1.22 74 1021.7
20210919210433 17 42 1.6 3.2 0.00 1.22 1.22 74 1021.9
20210919205932 16 78 1.6 3.2 0.00 1.22 1.22 72 1021.6
20210919205430 16 68 0.0 0.0 0.00 1.22 1.22 77 1021.4
20210919204922 16 56 0.0 1.6 0.00 1.22 1.22 76 1021.7
20210919204406 16 79 1.6 1.6 0.00 1.22 1.22 75 1021.6
20210919203903 16 86 1.6 1.6 0.00 1.22 1.22 75 1021.4
20210919203402 16 63 1.6 1.6 0.00 1.22 1.22 76 1021.6
20210919202901 17 14 4.8 4.8 0.00 1.22 1.22 75 1021.7
20210919202401 16 41 9.7 12.9 0.00 1.22 1.22 74 1021.7
20210919201900 16 52 1.6 1.6 0.00 1.22 1.22 74 1021.6
20210919201359 16 83 1.6 1.6 0.00 1.22 1.22 74 1021.7
20210919200857 16 60 1.6 3.2 0.00 1.22 1.22 73 1021.6
20210919200355 16 98 1.6 3.2 0.00 1.22 1.22 76 1021.4
20210919195854 15 60 1.6 3.2 0.00 1.22 1.22 80 1021.3
20210919195352 15 72 3.2 3.2 0.00 1.22 1.22 79 1021.2
20210919194852 15 69 0.0 0.0 0.00 1.22 1.22 77 1021.2
20210919194348 16 52 1.6 4.8 0.00 1.22 1.22 73 1021.2
20210919193848 16 100 3.2 3.2 0.00 1.22 1.22 73 1021.1
20210919193347 17 100 0.0 1.6 0.00 1.22 1.22 69 1020.8
20210919192846 17 100 0.0 0.0 0.00 1.22 1.22 75 1020.7
20210919192344 17 100 0.0 1.6 0.00 1.22 1.22 73 1021.0
20210919191843 17 72 4.8 4.8 0.00 1.22 1.22 67 1021.1
20210919191341 17 184 4.8 8.0 0.00 1.22 1.22 70 1020.8
20210919190842 17 92 3.2 3.2 0.00 1.22 1.22 70 1020.6
20210919190341 17 52 1.6 1.6 0.00 1.22 1.22 70 1020.8
20210919185839 16 93 3.2 4.8 0.00 1.22 1.22 71 1020.6
20210919185338 16 8 6.4 8.0 0.00 1.22 1.22 75 1020.8
20210919184838 17 76 1.6 3.2 0.00 1.22 1.22 72 1020.7
20210919184329 17 49 1.6 3.2 0.00 1.22 1.22 70 1020.6
20210919183827 16 23 4.8 4.8 0.00 1.22 1.22 72 1020.6
20210919183326 16 46 3.2 3.2 0.00 1.22 1.22 73 1020.5
20210919182825 16 54 1.6 1.6 0.00 1.22 1.22 72 1020.1
20210919182324 16 87 6.4 9.7 0.00 1.22 1.22 73 1020.4
20210919181822 16 18 4.8 8.0 0.00 1.22 1.22 72 1020.3
20210919181321 16 77 1.6 1.6 0.00 1.22 1.22 74 1020.0
20210919180820 16 49 1.6 1.6 0.00 1.22 1.22 76 1020.1
20210919180318 15 66 0.0 0.0 0.00 1.22 1.22 76 1020.0
20210919175817 15 64 1.6 3.2 0.00 1.22 1.22 79 1020.0
20210919175316 15 55 1.6 1.6 0.00 1.22 1.22 80 1019.8
20210919174816 15 55 6.4 8.0 0.00 1.22 1.22 80 1019.7
20210919174314 15 79 1.6 3.2 0.00 1.22 1.22 84 1019.7
20210919173813 15 78 1.6 1.6 0.00 1.22 1.22 87 1019.8
20210919173311 14 82 0.0 0.0 0.00 1.22 1.22 84 1019.5
20210919172809 13 60 0.0 1.6 0.00 1.22 1.22 84 1019.7
20210919172308 13 54 1.6 4.8 0.00 1.22 1.22 92 1019.3
20210919171805 13 50 3.2 3.2 0.00 1.22 1.22 92 1019.4
20210919171304 12 50 1.6 3.2 0.00 1.22 1.22 94 1019.4
20210919170801 12 50 0.0 1.6 0.00 1.22 1.22 96 1019.3
20210919170301 12 50 0.0 0.0 0.00 1.22 1.22 96 1019.3
20210919165800 12 50 0.0 0.0 0.00 1.22 1.22 97 1019.2
20210919165259 12 50 0.0 0.0 0.00 1.22 1.22 97 1019.1
20210919164757 12 49 0.0 0.0 0.00 1.22 1.22 97 1018.9
20210919164257 11 49 0.0 1.6 0.00 1.22 1.22 98 1018.7
20210919163756 11 50 3.2 3.2 0.00 1.22 1.22 98 1018.5
20210919163252 11 50 1.6 1.6 0.00 1.22 1.22 98 1018.6
20210919162750 11 50 1.6 1.6 0.00 1.22 1.22 98 1018.6
20210919162250 11 50 1.6 1.6 0.00 1.22 1.22 97 1018.4
20210919161748 12 48 1.6 3.2 0.00 1.22 1.22 97 1018.4
20210919161248 12 48 3.2 3.2 0.00 1.22 1.22 97 1018.3
20210919160747 12 57 1.6 1.6 0.00 1.22 1.22 98 1018.2
20210919160245 12 57 1.6 1.6 0.00 1.22 1.22 98 1018.1
20210919155743 11 56 1.6 1.6 0.00 1.22 1.22 98 1018.0
20210919155242 11 70 1.6 1.6 0.00 1.22 1.22 99 1017.9
20210919154742 11 70 0.0 0.0 0.00 1.22 1.22 99 1018.0
20210919154240 11 70 0.0 0.0 0.00 1.22 1.22 99 1017.9
20210919153740 11 70 0.0 0.0 0.00 1.22 1.22 99 1018.0
20210919153238 10 71 0.0 0.0 0.00 1.22 1.22 99 1017.4
20210919152736 10 70 0.0 0.0 0.00 1.22 1.22 99 1017.6
20210919152234 10 70 0.0 0.0 0.00 1.22 1.22 99 1017.6
20210919151732 10 71 0.0 0.0 0.00 1.22 1.22 99 1017.6
20210919151229 10 71 0.0 0.0 0.00 1.22 1.22 99 1017.4
20210919150729 10 71 0.0 0.0 0.00 1.22 1.22 99 1017.3
20210919150227 10 71 0.0 0.0 0.00 1.22 1.22 99 1017.4
20210919145725 10 71 0.0 0.0 0.00 1.22 1.22 99 1017.1
20210919145224 10 70 0.0 0.0 0.00 1.22 1.22 99 1017.0
20210919144722 10 70 0.0 0.0 0.00 1.22 1.22 99 1017.0
20210919144219 10 70 0.0 0.0 0.00 1.22 1.22 99 1016.8
20210919143718 10 70 0.0 0.0 0.00 1.22 1.22 99 1016.8
20210919143217 10 70 0.0 0.0 0.00 1.22 1.22 99 1016.8
20210919142712 10 70 0.0 0.0 0.00 1.22 1.22 99 1016.7
20210919142211 10 70 0.0 0.0 0.00 1.22 1.22 99 1016.7
20210919141710 10 70 0.0 0.0 0.00 1.22 1.22 99 1016.3
20210919141208 10 70 0.0 0.0 0.00 1.22 1.22 99 1016.4
20210919140707 10 70 0.0 0.0 0.00 1.22 1.22 99 1016.2
20210919140205 10 70 0.0 0.0 0.00 1.22 1.22 99 1016.5
20210919135703 10 70 0.0 0.0 0.00 1.22 1.22 99 1016.0
20210919135202 10 70 0.0 0.0 0.18 1.22 1.22 99 1016.1
20210919134701 10 70 0.0 0.0 0.18 1.22 1.22 99 1016.0
20210919134158 10 70 0.0 0.0 0.00 1.17 1.17 99 1015.7
20210919133657 10 70 0.0 0.0 0.00 1.17 1.17 99 1016.0
20210919133155 10 70 0.0 0.0 0.00 1.17 1.17 99 1016.0
20210919132654 10 70 0.0 0.0 0.00 1.17 1.17 99 1015.9
20210919132153 10 70 0.0 0.0 0.00 1.17 1.17 99 1015.7
20210919131646 10 70 0.0 0.0 0.00 1.17 1.17 99 1015.6
20210919131143 10 70 0.0 0.0 0.00 1.17 1.17 99 1015.5
20210919130641 10 70 0.0 0.0 0.00 1.17 1.17 99 1015.5
20210919130141 10 70 0.0 0.0 0.00 1.17 1.17 99 1015.3
20210919125640 10 70 0.0 0.0 0.00 1.17 1.17 99 1015.0
20210919125136 10 70 0.0 0.0 0.00 1.17 1.17 99 1015.2
20210919124637 10 70 0.0 0.0 0.00 1.17 1.17 99 1015.3
20210919124136 10 70 0.0 0.0 0.00 1.17 1.17 99 1015.0
20210919123634 10 70 0.0 0.0 0.00 1.17 1.17 99 1014.9
20210919123133 10 70 0.0 0.0 0.00 1.17 1.17 99 1014.8
20210919122632 10 70 0.0 0.0 0.00 1.17 1.17 99 1014.6
20210919122131 10 70 0.0 0.0 0.00 1.17 1.17 99 1014.8
20210919121630 10 70 0.0 0.0 0.00 1.17 1.17 99 1014.6
20210919121129 10 70 0.0 0.0 0.00 1.17 1.17 99 1014.5
20210919120626 10 70 0.0 0.0 0.00 1.17 1.17 99 1014.5
20210919120125 10 70 0.0 0.0 0.00 1.17 1.17 99 1014.5
20210919115623 10 70 0.0 0.0 0.00 1.17 1.17 99 1014.5
20210919115122 10 70 0.0 0.0 0.00 1.17 1.17 99 1014.4
20210919114620 10 70 0.0 0.0 0.00 1.17 1.17 99 1014.4
20210919114118 10 70 0.0 0.0 0.00 1.17 1.17 99 1014.2
20210919113614 10 70 0.0 0.0 0.00 1.17 1.17 99 1014.2
20210919113113 10 70 0.0 0.0 0.00 1.17 1.17 99 1014.0
20210919112613 10 70 0.0 0.0 0.10 1.17 1.17 99 1014.0
20210919112111 10 70 0.0 0.0 0.10 1.17 1.17 99 1014.3
20210919111609 10 70 0.0 0.0 0.18 1.17 1.17 99 1013.9
20210919111107 10 70 0.0 0.0 0.28 1.17 1.17 99 1013.8
20210919110607 10 70 0.0 0.0 0.41 1.12 1.12 99 1013.9
20210919110057 10 70 0.0 0.0 0.46 1.12 1.12 99 1013.8
20210919105556 10 70 0.0 0.0 0.46 1.07 1.07 99 1013.9
20210919105053 10 70 0.0 0.0 0.36 1.02 1.02 99 1013.9
20210919104552 10 71 0.0 0.0 0.28 0.99 0.99 99 1013.7
20210919104051 10 71 0.0 0.0 0.28 0.94 0.94 99 1013.7
20210919103548 10 71 0.0 0.0 0.28 0.94 0.94 99 1013.9
20210919103047 10 71 0.0 0.0 0.28 0.89 0.89 99 1013.7
20210919102547 10 71 0.0 0.0 0.28 0.84 0.84 99 1013.7
20210919102046 10 71 0.0 0.0 0.58 0.84 0.84 99 1013.4
20210919101533 10 71 0.0 0.0 0.41 0.79 0.79 99 1013.6
20210919101032 10 71 0.0 1.6 0.28 0.74 0.74 99 1013.6
20210919100529 10 71 0.0 0.0 0.46 0.74 0.74 99 1013.7
20210919100022 10 71 0.0 0.0 0.58 0.71 0.71 99 1013.7
20210919095520 10 71 0.0 0.0 0.46 0.66 0.66 98 1013.5
20210919095018 10 71 0.0 1.6 0.28 0.61 0.61 99 1013.6
20210919094518 10 71 0.0 0.0 0.41 0.56 0.56 99 1013.5
20210919094017 10 71 0.0 0.0 0.46 0.56 0.56 98 1013.5
20210919093516 10 71 0.0 0.0 0.46 0.51 0.51 98 1013.5
20210919093015 10 71 0.0 0.0 0.41 0.46 0.46 98 1013.5
20210919092514 10 71 0.0 0.0 0.41 0.41 0.41 98 1013.5
20210919092011 10 71 0.0 0.0 0.46 0.41 0.41 98 1013.5
20210919091510 10 71 0.0 0.0 0.18 0.36 0.36 98 1013.4
20210919091009 10 71 0.0 0.0 0.18 0.33 0.33 98 1013.0
20210919090509 10 71 0.0 0.0 0.18 0.33 0.33 98 1013.1
20210919090007 10 71 0.0 0.0 0.00 0.28 0.28 98 1013.1
20210919085507 10 71 0.0 0.0 0.10 0.28 0.28 98 1012.6
20210919085006 10 71 0.0 0.0 0.41 0.28 0.28 98 1012.7
20210919084505 10 71 0.0 0.0 0.46 0.28 0.28 98 1012.7
20210919084004 10 71 0.0 0.0 0.46 0.23 0.23 98 1012.8
20210919083504 10 71 0.0 0.0 0.58 0.18 0.18 98 1012.9
20210919082959 10 71 0.0 0.0 0.41 0.13 0.13 98 1012.7
20210919082459 10 71 0.0 0.0 0.10 0.08 0.08 98 1012.4
20210919081956 10 71 0.0 0.0 0.00 0.08 0.08 98 1012.2
20210919081454 10 71 0.0 0.0 0.00 0.08 0.08 98 1012.3
20210919080955 10 71 0.0 0.0 0.18 0.08 0.08 98 1012.3
20210919080452 10 71 0.0 0.0 0.18 0.08 0.08 98 1012.3
20210919075952 10 71 0.0 0.0 0.00 0.05 0.05 98 1012.0
20210919075451 10 71 0.0 0.0 0.18 0.05 0.05 98 1012.4
20210919074949 10 71 1.6 1.6 0.18 0.05 0.05 98 1012.2
20210919074449 10 71 0.0 0.0 0.10 0.00 0.00 98 1012.3
20210919073947 10 71 0.0 1.6 0.10 0.00 0.00 98 1012.4
20210919073445 10 71 0.0 0.0 0.00 0.00 0.00 98 1012.3
20210919072945 10 71 0.0 0.0 0.00 0.00 0.00 98 1012.4
20210919072443 10 71 0.0 0.0 0.00 0.00 0.00 98 1012.1
20210919071942 10 71 3.2 3.2 0.00 0.00 0.00 98 1012.2
20210919071440 10 71 1.6 1.6 0.00 0.00 0.00 98 1012.0
20210919070937 10 71 0.0 0.0 0.00 0.00 0.00 98 1012.1
20210919070437 10 71 0.0 0.0 0.00 0.00 0.00 98 1012.2
20210919065936 10 71 1.6 1.6 0.18 4.98 4.98 98 1012.1
20210919065435 10 71 0.0 0.0 0.46 4.98 4.98 98 1012.0
20210919064934 10 71 1.6 1.6 0.89 4.93 4.93 98 1012.2
20210919064434 11 71 0.0 1.6 0.76 4.88 4.88 98 1012.6
20210919063934 11 71 0.0 0.0 0.76 4.80 4.80 98 1012.3
20210919063433 11 71 0.0 0.0 0.76 4.75 4.75 98 1012.1
20210919062931 11 71 0.0 0.0 0.58 4.65 4.65 98 1012.2
20210919062430 11 71 0.0 0.0 0.28 4.60 4.60 98 1011.9
20210919061929 11 71 0.0 0.0 0.00 4.55 4.55 98 1011.8
20210919061428 11 71 0.0 0.0 0.10 4.55 4.55 98 1011.7
20210919060926 11 71 0.0 0.0 0.89 4.55 4.55 98 1011.5